Window Rock, AZ

2:20 AM MST on February 18, 2018 (GMT -0700)
Window Rock

Weather History for KRQE - April, 2013

Change the Weather History Date:

Monday, April 8, 2013

  Actual Average Record
Temperature  
Mean Temperature 48 °F -  
Max Temperature 64 °F 61 °F 84 °F (1989)
Min Temperature 32 °F 27 °F 14 °F (2003)
Degree Days  
Heating Degree Days 17    
Moisture  
Dew Point 24 °F    
Average Humidity 52    
Maximum Humidity 93    
Minimum Humidity 15    
Precipitation  
Precipitation 0.02 in - - ()
Sea Level Pressure  
Sea Level Pressure 29.45 in    
Wind  
Wind Speed 15 mph (SW)    
Max Wind Speed 39 mph    
Max Gust Speed 60 mph    
Visibility 7 miles    
Events Rain , Snow    
Averages and records for this station are not official NWS values.
T = Trace of Precipitation, MM = Missing Value Source: NWS Daily Summary

Daily Weather History Graph

Daily Weather History Graph

Search for Another Location

Airport or City:

Trip Planner

Search our weather history database for the weather conditions in past years. The results will help you decide how hot, cold, wet, or windy it might be!

Date:

Astronomy

Apr. 08, 2013 Rise Set
Actual Time 6:52 AM MDT 7:43 PM MDT
Civil Twilight 6:26 AM MDT 8:10 PM MDT
Nautical Twilight 5:55 AM MDT 8:40 PM MDT
Astronomical Twilight 5:24 AM MDT 9:12 PM MDT
Moon 5:41 AM MDT (4/8) 6:23 PM MDT (4/8)
Length of Visible Light 13h 43m
Length of Day
12h 51m
Waning Crescent, 3% of the Moon is Illuminated
Apr 8
Waning Crescent
Apr 10
New
Apr 18
First Quarter
Apr 25
Full
May 2
Last Quarter

Hourly Weather History & Observations

Time (MDT) Temp. Windchill Dew Point Humidity Pressure Visibility Wind Dir Wind Speed Gust Speed Precip Events Conditions
12:53 AM 46.9 °F - 25.0 °F 42% 29.61 in 10.0 mi SW 8.1 mph - N/A   Clear
1:53 AM 44.1 °F 41.5 °F 24.1 °F 45% 29.61 in 10.0 mi South 4.6 mph - N/A   Clear
2:53 AM 45.0 °F 41.2 °F 24.1 °F 44% 29.56 in 10.0 mi SSE 6.9 mph - N/A   Clear
3:53 AM 46.0 °F 42.5 °F 25.0 °F 44% 29.51 in 10.0 mi SSE 6.9 mph - N/A   Clear
4:53 AM 42.1 °F 39.2 °F 24.1 °F 49% 29.52 in 10.0 mi SSE 4.6 mph - N/A   Clear
5:53 AM 39.9 °F 37.8 °F 24.1 °F 53% 29.50 in 10.0 mi ESE 3.5 mph - N/A   Clear
7:53 AM 44.1 °F 40.1 °F 26.1 °F 49% 29.50 in 10.0 mi SE 6.9 mph - N/A   Clear
8:53 AM 50.0 °F - 28.9 °F 44% 29.46 in 10.0 mi SSW 18.4 mph 29.9 mph N/A   Clear
9:53 AM 53.1 °F - 30.0 °F 41% 29.42 in 10.0 mi SSW 15.0 mph 28.8 mph N/A   Scattered Clouds
10:53 AM 57.0 °F - 27.0 °F 32% 29.37 in 10.0 mi SSW 26.5 mph 40.3 mph N/A   Scattered Clouds
11:53 AM 60.1 °F - 24.1 °F 25% 29.34 in 9.0 mi SSW 28.8 mph 44.9 mph N/A   Clear
12:53 PM 63.0 °F - 21.0 °F 20% 29.28 in 8.0 mi SSW 31.1 mph 42.6 mph N/A   Partly Cloudy
1:53 PM 63.0 °F - 17.1 °F 17% 29.23 in 3.0 mi SW 27.6 mph 54.1 mph N/A   Haze
2:12 PM 62.6 °F - 15.8 °F 16% 29.48 in 2.5 mi SSW 33.4 mph 51.8 mph N/A   Haze
2:22 PM 64.4 °F - 17.6 °F 16% 29.47 in 4.0 mi SSW 32.2 mph 51.8 mph N/A   Haze
2:53 PM 62.1 °F - 18.0 °F 18% 29.21 in 4.0 mi SSW 39.1 mph 52.9 mph N/A   Haze
3:53 PM 59.0 °F - 17.1 °F 20% 29.19 in 5.0 mi SSW 34.5 mph 59.8 mph N/A   Haze
4:49 PM 60.8 °F - 12.2 °F 15% 29.41 in 4.0 mi SSW 33.4 mph 55.2 mph N/A   Haze
4:53 PM 60.1 °F - 12.0 °F 15% 29.18 in 5.0 mi SSW 35.7 mph 52.9 mph N/A   Haze
5:13 PM 57.2 °F - 12.2 °F 17% 29.42 in 2.5 mi SW 38.0 mph 57.5 mph N/A   Haze
5:24 PM 57.2 °F - 12.2 °F 17% 29.43 in 3.0 mi SW 33.4 mph 52.9 mph N/A   Haze
5:38 PM 55.4 °F - 14.0 °F 20% 29.44 in 4.0 mi SSW 34.5 mph 57.5 mph N/A   Haze
5:53 PM 54.0 °F - 17.1 °F 23% 29.26 in 5.0 mi WSW 33.4 mph 49.5 mph N/A   Haze
6:10 PM 46.4 °F 38.1 °F 26.6 °F 46% 29.49 in 7.0 mi WNW 24.2 mph 46.0 mph 0.00 in Rain Light Rain
6:53 PM 39.9 °F 31.8 °F 32.0 °F 73% 29.34 in 10.0 mi WNW 15.0 mph 25.3 mph 0.00 in Rain Light Rain
7:53 PM 37.0 °F 28.1 °F 33.1 °F 86% 29.39 in 10.0 mi WNW 15.0 mph 19.6 mph 0.00 in Rain Light Rain
8:53 PM 35.1 °F 31.0 °F 30.9 °F 85% 29.42 in 10.0 mi WNW 4.6 mph - 0.00 in Rain Light Rain
8:58 PM 35.6 °F 30.7 °F 30.2 °F 81% 29.59 in 10.0 mi West 5.8 mph - 0.00 in Rain Light Rain
9:11 PM 33.8 °F 25.8 °F 30.2 °F 87% 29.60 in 2.5 mi West 10.4 mph 17.3 mph 0.00 in Snow Light Snow
9:15 PM 32.0 °F 26.4 °F 30.2 °F 93% 29.60 in 1.2 mi Variable 5.8 mph 17.3 mph 0.01 in Snow Light Snow
9:20 PM 32.0 °F 28.7 °F 30.2 °F 93% 29.60 in 1.2 mi SSW 3.5 mph - 0.02 in Snow Light Snow
9:25 PM 32.0 °F 27.5 °F 30.2 °F 93% 29.60 in 3.0 mi SW 4.6 mph - 0.02 in Snow Light Snow
9:50 PM 33.8 °F - 28.4 °F 81% 29.60 in 10.0 mi Calm Calm - 0.02 in   Overcast
9:53 PM 34.0 °F - 28.9 °F 82% 29.43 in 10.0 mi Calm Calm - 0.02 in   Overcast
10:53 PM 34.0 °F - 30.0 °F 85% 29.39 in 10.0 mi Calm Calm - N/A   Overcast
11:08 PM 35.6 °F - 30.2 °F 81% 29.57 in 10.0 mi Calm Calm - N/A   Overcast
11:34 PM 33.8 °F 30.8 °F 30.2 °F 87% 29.57 in 2.5 mi Variable 3.5 mph - 0.00 in Snow Light Snow
11:43 PM 33.8 °F - 30.2 °F 87% 29.57 in 1.2 mi Calm Calm - 0.00 in Snow Light Snow
11:53 PM 33.1 °F - 30.0 °F 89% 29.37 in 1.8 mi Calm Calm - 0.00 in Snow Light Snow